Location: downtown San Diego
(32.7310°N, 117.1990°W)
Time: 16:45:48
(UTC-07:00)

In-Cosmos 22 - Pass Details

Date: 14 June 2018
Orbit: 785 x 876 km, 81.2° (Epoch: 19 October)

Event Time Altitude Azimuth Distance (km) Brightness Sun altitude
Exits shadow 22:19:44 55° 172° (S) 975 4.2 -23.6°
Maximum altitude 22:20:57 80° 96° (E) 836 4.0 -23.7°
Drops below altitude 10° 22:26:30 10° 10° (N) 2,453 7.1 -24.4°
Sets 22:28:57 0° 10° (N) 3,405 8.0 -24.7°
